STARLINK-2442 (48106 NORAD) Tracking and Keplerian Element Data

This shows tracking and keplerian element data for the satellite.

Feedback or suggestion? Click here.




ElementValue
Catalog48106
NameSTARLINK-2442
Epoch Orbit198
Epoch Day173.91668981
Epoch Year2021
RAAN321.716
Inclination53.0462
Eccentricity0.0004616
Argument of Perigee356.6617
Mean Anonmoly12.5778
Mean Motion15.65424927
Decay Rate-0.01107745
L11 48106U 21027Q 21173.91668981 -.01107745 00000-0 -11970-1 0 9999
L22 48106 53.0462 321.7160 0004616 356.6617 12.5778 15.65424927 1985

Live tracking and technical data element details for STARLINK-2442 (NORAD 48106). STARLINK-2442 can be tracked NOW for your location showing map with azimuth and elevation plus other details from your city location.

Track the satellite on the map from your city or location and see movement details for azimuth, elevation, latitude, longitude, range, height, and movement on the map or in text.







IsCatalogInMostPopularTable: catalog: 48106, numindb: 34
Update: records affected: 1



GetName: 48106 STARLINK-2442

Hit Count: updated at: Thu, 24 Jun 2021 04:19:51 GMT